Location: Fernhill
(41.0167°S, 175.6333°E)
Time: 16:39:16
(UTC+00:00)

Cosmos 1833 Rocket - Pass Details

Date: 14 February 2026
Orbit: 832 x 837 km, 71.0° (Epoch: 8 March)

Event Time Altitude Azimuth Distance (km) Brightness Sun altitude
Exits shadow 14:03:26 43° 206° (SSW) 1,172 3.6 -32.1°
Drops below altitude 10° 14:07:47 10° 166° (SSE) 2,478 6.0 -31.7°
Sets 14:10:21 0° 160° (SSE) 3,419 7.0 -31.5°
